Tracking 29033 objects as of 22-Jun-2024
HD Live streaming from Space Station
objects crossing your sky now

STARLINK-5600

Track STARLINK-5600 now!
10-day predictions
STARLINK-5600 is classified as:


NORAD ID: 57357
Int'l Code: 2023-099AF
Perigee: 565.6 km
Apogee: 566.7 km
Inclination: 43.0 °
Period: 95.8 minutes
Semi major axis: 6937 km
RCS: Unknown
Launch date: July 16, 2023
Source: United States (US)
Launch site: AIR FORCE EASTERN TEST RANGE (AFETR)
Your satellite tracking list
Your tracking list is empty




NASA's NSSDC Master Catalog

Two Line Element Set (TLE):
1 57357U 23099AF  24173.67763674  .00004627  00000-0  35714-3 0  9995
2 57357  43.0048  37.9063 0000795 310.5923  49.4850 15.02563480 52090
Source of the keplerian elements: AFSPC